TimeCDT,TemperatureF,Dew PointF,Humidity,Sea Level PressureIn,VisibilityMPH,Wind Direction,Wind SpeedMPH,Gust SpeedMPH,PrecipitationIn,Events,Conditions,WindDirDegrees,DateUTC
12:15 AM,62.8,60.4,92,30.14,10.0,Calm,Calm,-,N/A,,Overcast,0,2013-08-15 05:15:00
12:35 AM,63.5,60.8,91,30.14,10.0,Calm,Calm,-,N/A,,Overcast,0,2013-08-15 05:35:00
12:55 AM,63.9,60.8,90,30.14,10.0,Calm,Calm,-,N/A,,Overcast,0,2013-08-15 05:55:00
1:15 AM,63.5,60.8,91,30.14,10.0,Calm,Calm,-,N/A,,Overcast,0,2013-08-15 06:15:00
1:35 AM,63.9,60.8,90,30.14,10.0,Calm,Calm,-,N/A,,Overcast,0,2013-08-15 06:35:00
1:55 AM,63.0,61.0,93,30.13,10.0,Calm,Calm,-,N/A,,Overcast,0,2013-08-15 06:55:00
2:15 AM,62.8,60.8,93,30.13,10.0,Calm,Calm,-,N/A,,Overcast,0,2013-08-15 07:15:00
2:35 AM,62.6,60.8,94,30.13,10.0,SSW,3.5,-,N/A,,Overcast,210,2013-08-15 07:35:00
2:55 AM,62.2,59.0,89,30.12,10.0,South,5.8,-,N/A,,Overcast,190,2013-08-15 07:55:00
3:15 AM,61.7,58.6,90,30.12,10.0,South,5.8,-,N/A,Rain,Light Rain,180,2013-08-15 08:15:00
3:35 AM,61.3,58.5,90,30.13,10.0,South,9.2,-,N/A,,Drizzle,190,2013-08-15 08:35:00
3:55 AM,60.8,58.1,91,30.13,10.0,South,8.1,-,N/A,Rain,Rain,190,2013-08-15 08:55:00
4:15 AM,60.4,58.1,92,30.14,10.0,South,8.1,-,N/A,,Drizzle,190,2013-08-15 09:15:00
4:35 AM,60.3,58.5,94,30.14,10.0,South,5.8,-,N/A,,Drizzle,180,2013-08-15 09:35:00
4:55 AM,59.9,58.3,94,30.13,10.0,South,6.9,-,N/A,Rain,Rain,170,2013-08-15 09:55:00
5:15 AM,59.9,58.3,94,30.13,7.0,South,6.9,-,0.01,Rain,Light Rain,170,2013-08-15 10:15:00
5:35 AM,59.9,58.3,94,30.13,7.0,South,6.9,-,0.01,Rain,Heavy Rain,190,2013-08-15 10:35:00
5:55 AM,59.7,58.1,94,30.12,7.0,South,5.8,-,0.01,,Drizzle,170,2013-08-15 10:55:00
6:15 AM,59.7,58.3,95,30.12,10.0,South,6.9,-,N/A,Rain,Heavy Rain,190,2013-08-15 11:15:00
6:35 AM,59.5,58.6,97,30.12,5.0,South,5.8,-,0.01,,Heavy Drizzle,170,2013-08-15 11:35:00
6:55 AM,59.9,59.0,97,30.12,7.0,South,5.8,-,0.01,,Drizzle,170,2013-08-15 11:55:00
7:15 AM,60.1,59.2,97,30.12,5.0,SSE,4.6,-,N/A,,Drizzle,150,2013-08-15 12:15:00
7:35 AM,60.4,59.7,97,30.12,5.0,SSE,4.6,-,N/A,,Drizzle,150,2013-08-15 12:35:00
7:55 AM,60.8,59.9,97,30.12,5.0,SSE,3.5,-,N/A,,Drizzle,150,2013-08-15 12:55:00
8:15 AM,61.3,60.4,97,30.13,7.0,SSE,4.6,-,N/A,,Light Drizzle,160,2013-08-15 13:15:00
8:35 AM,61.7,60.8,97,30.13,7.0,SSE,4.6,-,N/A,,Overcast,150,2013-08-15 13:35:00
8:55 AM,62.1,61.0,96,30.13,7.0,SSE,6.9,-,N/A,Rain,Rain,150,2013-08-15 13:55:00
9:15 AM,62.6,61.2,95,30.13,7.0,SE,6.9,-,N/A,,Overcast,140,2013-08-15 14:15:00
9:35 AM,62.6,61.0,94,30.13,7.0,SSE,6.9,-,N/A,,Overcast,150,2013-08-15 14:35:00
9:55 AM,63.0,61.3,94,30.13,7.0,SE,4.6,-,N/A,,Light Drizzle,130,2013-08-15 14:55:00
10:15 AM,63.7,61.7,93,30.13,10.0,SSE,5.8,-,N/A,,Overcast,150,2013-08-15 15:15:00
10:35 AM,64.4,61.7,91,30.13,10.0,SE,8.1,-,N/A,,Overcast,140,2013-08-15 15:35:00
10:55 AM,65.7,61.7,87,30.12,10.0,SE,8.1,-,0.01,,Overcast,140,2013-08-15 15:55:00
11:15 AM,66.6,61.5,84,30.12,10.0,SSE,11.5,-,N/A,,Overcast,150,2013-08-15 16:15:00
11:35 AM,67.6,61.3,80,30.11,10.0,SE,12.7,17.3,N/A,,Overcast,140,2013-08-15 16:35:00
11:55 AM,67.3,61.0,80,30.12,10.0,SSE,9.2,-,N/A,,Overcast,160,2013-08-15 16:55:00
12:15 PM,67.1,60.6,80,30.12,10.0,SSE,8.1,-,N/A,,Overcast,160,2013-08-15 17:15:00
12:35 PM,66.6,60.4,81,30.12,10.0,SSE,9.2,-,N/A,,Overcast,160,2013-08-15 17:35:00
12:55 PM,66.6,60.6,81,30.11,10.0,South,10.4,-,N/A,,Overcast,170,2013-08-15 17:55:00
1:15 PM,67.6,61.0,79,30.11,10.0,SSE,8.1,-,N/A,,Overcast,150,2013-08-15 18:15:00
1:35 PM,67.3,60.8,80,30.11,10.0,SSE,9.2,-,N/A,,Overcast,150,2013-08-15 18:35:00
1:55 PM,67.1,60.8,80,30.11,10.0,SE,8.1,-,N/A,,Overcast,140,2013-08-15 18:55:00
2:15 PM,67.1,60.6,80,30.11,10.0,SE,8.1,-,N/A,,Overcast,130,2013-08-15 19:15:00
2:35 PM,68.0,60.8,78,30.11,10.0,SSE,6.9,-,N/A,,Overcast,150,2013-08-15 19:35:00
2:55 PM,67.6,60.4,78,30.11,10.0,SE,8.1,-,N/A,,Overcast,140,2013-08-15 19:55:00
3:15 PM,67.5,60.8,79,30.11,10.0,SE,4.6,-,N/A,,Overcast,130,2013-08-15 20:15:00
3:35 PM,68.0,60.8,78,30.11,10.0,ESE,5.8,-,N/A,,Overcast,120,2013-08-15 20:35:00
3:55 PM,68.0,60.8,78,30.10,10.0,SE,5.8,-,N/A,,Overcast,130,2013-08-15 20:55:00
4:15 PM,68.4,61.0,77,30.10,10.0,SE,6.9,-,N/A,,Overcast,130,2013-08-15 21:15:00
4:35 PM,68.0,60.6,77,30.10,10.0,SSE,8.1,-,N/A,,Overcast,150,2013-08-15 21:35:00
4:55 PM,68.4,60.8,77,30.10,10.0,SSE,8.1,-,N/A,,Overcast,150,2013-08-15 21:55:00
5:15 PM,67.8,60.6,78,30.11,10.0,SE,9.2,-,N/A,,Overcast,140,2013-08-15 22:15:00
5:35 PM,67.6,58.6,73,30.11,10.0,SSE,8.1,-,N/A,,Overcast,150,2013-08-15 22:35:00
5:55 PM,68.2,57.6,69,30.11,10.0,SSE,10.4,-,N/A,,Overcast,160,2013-08-15 22:55:00
6:15 PM,68.4,58.1,70,30.11,10.0,SSE,6.9,-,N/A,,Overcast,160,2013-08-15 23:15:00
6:35 PM,68.2,58.1,70,30.11,10.0,SE,9.2,-,N/A,,Overcast,140,2013-08-15 23:35:00
6:55 PM,68.0,58.3,71,30.11,10.0,SE,5.8,-,N/A,,Overcast,140,2013-08-15 23:55:00
7:15 PM,67.3,59.5,76,30.11,10.0,ESE,4.6,-,N/A,,Overcast,110,2013-08-16 00:15:00
7:35 PM,66.6,59.4,78,30.11,10.0,ESE,5.8,-,N/A,,Overcast,110,2013-08-16 00:35:00
7:55 PM,66.2,58.5,76,30.11,10.0,SE,4.6,-,N/A,,Overcast,130,2013-08-16 00:55:00
8:15 PM,65.5,59.2,80,30.12,10.0,SE,3.5,-,N/A,,Overcast,130,2013-08-16 01:15:00
8:35 PM,65.3,59.5,82,30.12,10.0,SE,5.8,-,N/A,,Overcast,140,2013-08-16 01:35:00
8:55 PM,65.3,59.5,82,30.13,10.0,SE,3.5,-,N/A,,Overcast,130,2013-08-16 01:55:00
9:15 PM,64.8,59.9,84,30.14,10.0,Calm,Calm,-,N/A,,Overcast,0,2013-08-16 02:15:00
9:35 PM,64.8,59.9,84,30.15,10.0,South,3.5,-,N/A,,Overcast,170,2013-08-16 02:35:00
9:55 PM,64.6,60.1,85,30.15,10.0,Calm,Calm,-,N/A,,Overcast,0,2013-08-16 02:55:00
10:15 PM,64.6,59.9,85,30.15,10.0,Calm,Calm,-,N/A,,Overcast,0,2013-08-16 03:15:00
10:35 PM,64.6,59.9,85,30.15,10.0,Calm,Calm,-,N/A,,Overcast,0,2013-08-16 03:35:00
10:55 PM,64.4,60.3,86,30.15,10.0,Calm,Calm,-,N/A,,Overcast,0,2013-08-16 03:55:00
11:15 PM,63.9,60.1,87,30.15,10.0,Calm,Calm,-,N/A,,Overcast,0,2013-08-16 04:15:00
11:35 PM,63.9,59.9,87,30.15,10.0,Calm,Calm,-,N/A,,Overcast,0,2013-08-16 04:35:00
11:55 PM,62.1,59.7,92,30.15,10.0,Calm,Calm,-,N/A,,Overcast,0,2013-08-16 04:55:00